This demonstration page uses our WeatherBlox Daily Observations layout. Learn more.

Left ArrowRight Arrow

39.92423, -83.80882

Hourly Observations for August 2, 2022

Temp ( °F °C ) Dew Point ( °F °C ) Humidity (%) Winds ( mph kmh ) Pressure ( in mb ) Visibility ( mi km ) Precip ( " mm )
12:56 am 00:56 Mostly Cloudy N/A N/A N/A SW 6 9 N/A 8 13 0.00 0.00
1:25 am 01:25 Mostly Clear N/A N/A N/A W 6 9 N/A 7 11 0.00 0.00
1:56 am 01:56 Hazy N/A N/A N/A W 7 11 N/A 6 10 0.00 0.00
2:56 am 02:56 Mostly Cloudy with Haze N/A N/A N/A WSW 5 7 N/A 4 6 0.00 0.00
3:56 am 03:56 Cloudy with Mist and Fog N/A N/A N/A SW 5 7 N/A 3 5 0.00 0.00
4:56 am 04:56 Hazy N/A N/A N/A W 5 7 N/A 5 8 0.00 0.00
5:56 am 05:56 Clear N/A N/A N/A W 5 7 N/A 7 11 0.00 0.00
6:56 am 06:56 Hazy 66 19 N/A N/A WSW 3 6 29.98 1015 4 6 0.00 0.00
7:56 am 07:56 Hazy 72 22 N/A N/A W 3 6 29.99 1016 6 10 0.00 0.00
8:56 am 08:56 Sunny 73 23 N/A N/A W 7 11 30.00 1016 10 16 0.00 0.00
9:29 am 09:29 Mostly Cloudy 75 24 75 24 100 100 WNW 7 11 29.98 1015 10 16 0.00 0.00
9:56 am 09:56 Mostly Cloudy 75 23.9 75 23.9 100 100 WNW 3 6 30.00 1016 10 16 0.00 0.00
10:25 am 10:25 Partly Cloudy 77 25 73 23 89 89 W 6 9 29.97 1015 10 16 0.00 0.00
10:56 am 10:56 Partly Cloudy 78 25.6 73 22.8 85 85 W 7 11 29.97 1015 10 16 0.00 0.00
11:56 am 11:56 Mostly Cloudy 80 26.7 71 21.7 74 74 WSW 9 15 29.99 1015 10 16 0.00 0.00
12:56 pm 12:56 Mostly Sunny 82 27.8 69 20.6 65 65 W 9 15 29.97 1015 10 16 0.00 0.00
1:56 pm 13:56 Partly Cloudy 83 28.3 68 20 61 61 W 15 24 29.97 1015 10 16 0.00 0.00
2:56 pm 14:56 Partly Cloudy 84 28.9 70 21.1 63 63 W 12 19 29.95 1014 10 16 0.00 0.00
3:56 pm 15:56 Partly Cloudy 85 29.4 70 21.1 61 61 WNW 8 13 29.95 1014 10 16 0.00 0.00
4:56 pm 16:56 Mostly Sunny 85 29.4 71 21.7 63 63 NW 6 9 29.93 1013 10 16 0.00 0.00
5:56 pm 17:56 Sunny 84 28.9 70 21.1 63 63 NW 7 11 29.93 1014 10 16 0.00 0.00
6:56 pm 18:56 Sunny 83 28.3 71 21.7 67 67 NW 5 7 29.96 1015 10 16 0.00 0.00
7:56 pm 19:56 Sunny 80 26.7 77 25 90 90 Calm 29.96 1015 10 16 0.00 0.00
8:56 pm 20:56 Mostly Clear 77 25 75 23.9 94 94 SSE 3 6 29.97 1015 10 16 0.00 0.00
9:56 pm 21:56 Cloudy 73 23 N/A N/A SW 5 7 29.99 1016 10 16 0.00 0.00
10:56 pm 22:56 Mostly Clear 72 22 N/A N/A WSW 6 9 30.01 1016 10 16 0.00 0.00
11:56 pm 23:56 Clear 70 21 N/A N/A Calm 30.00 1016 10 16 0.00 0.00

Powered by AerisWeather